Flag for Germany Weather past 2 weeks in Merseburg, Saxony-Anhalt, Germany

Now
84 °F

Sunny.


Feels Like: 82 °F
Forecast: 68 / 82 °F
Wind: 12 mph from Northeast

Location: Leipzig-Schkeuditz

Current Time: Jul 22, 2014 at 6:00:54 PM

Latest Report: Jul 22, 2014 at 5:20 PM


Visibility: 10 mi

Pressure: 29.98 "Hg

Humidity: 33%

Dew point: 52 °F

Location of MerseburgLocation

Historic Weather in Merseburg — Graph

°F

Merseburg temperature yesterday

Maximum temperature yesterday: 77 °F (at 12:20 AM)
Minimum temperature yesterday: 68 °F (at 11:50 PM)
Average temperature yesterday: 73 °F

Past Weeks' High & Low Weather Summary

 TemperatureHumidityPressure
High93 °F (Jul 20, 3:50 PM)100% (Jul 8, 2:20 AM)30.18 "Hg (Jul 8, 2:20 AM)
Low52 °F (Jul 12, 3:50 AM)22% (Jul 19, 6:50 PM)29.53 "Hg (Jul 9, 7:50 AM)
Average70 °F70%29.92 "Hg
* Reported Jul 7 4:20 PM — Jul 22 4:50 PM, Merseburg, Weather by CustomWeather, © 2014

Note: Actual official high and low records may vary slightly from our data, if they occured in-between our weather recording intervals... More about our weather records

Advertising

Merseburg weather history for previous 24 hours

 ConditionsComfort  
Time TempWeatherWind HumidityBarometerVisibility
4:50 PM
Jul 22
84 °FSunny.14 mph33%29.98 "Hg10 mi
4:20 PM84 °FSunny.16 mph33%29.98 "Hg10 mi
3:50 PM82 °FSunny.17 mph35%29.98 "Hg10 mi
3:20 PM82 °FSunny.15 mph37%29.98 "Hg10 mi
2:50 PM82 °FSunny.15 mph35%29.98 "Hg10 mi
2:20 PM84 °FSunny.16 mph33%29.98 "Hg10 mi
1:50 PM82 °FSunny.17 mph35%29.98 "Hg10 mi
1:20 PM82 °FSunny.15 mph37%29.98 "Hg10 mi
12:50 PM81 °FScattered clouds.12 mph45%29.98 "HgN/A
12:20 PM81 °FScattered clouds.10 mph45%29.98 "HgN/A
11:50 AM81 °FPassing clouds.9 mph51%29.98 "HgN/A
11:20 AM79 °FPassing clouds.9 mph54%29.98 "HgN/A
10:50 AM75 °FSunny.13 mph65%29.98 "Hg10 mi
10:20 AM73 °FSunny.10 mph69%29.98 "Hg10 mi
9:50 AM73 °FSunny.10 mph69%29.98 "Hg10 mi
9:20 AM72 °FSunny.9 mph73%29.98 "Hg10 mi
8:50 AM70 °FSunny.9 mph78%29.98 "Hg10 mi
8:20 AM68 °FSunny.9 mph78%29.98 "Hg10 mi
7:50 AM66 °FSunny.10 mph83%29.98 "Hg10 mi
7:20 AM64 °FSunny.10 mph88%29.95 "Hg10 mi
6:50 AM64 °FSunny.10 mph88%29.95 "Hg10 mi
6:20 AM63 °FSunny.7 mph94%29.95 "Hg10 mi
5:50 AM63 °FClear.10 mph88%29.92 "Hg10 mi
5:20 AM63 °FClear.8 mph88%29.92 "Hg10 mi
4:50 AM64 °FClear.8 mph83%29.92 "Hg10 mi
4:20 AM64 °FClear.8 mph83%29.89 "Hg10 mi
3:50 AM66 °FClear.8 mph78%29.89 "Hg10 mi
3:20 AM68 °FClear.9 mph78%29.89 "Hg10 mi
2:50 AM68 °FClear.9 mph78%29.89 "Hg10 mi
2:20 AM68 °FClear.9 mph78%29.89 "Hg10 mi
1:50 AM68 °FClear.9 mph78%29.89 "Hg10 mi
1:20 AM70 °FClear.9 mph73%29.89 "Hg10 mi
12:50 AM70 °FClear.10 mph78%29.89 "Hg10 mi
12:20 AM70 °FClear.8 mph83%29.86 "Hg10 mi
11:50 PM
Jul 21
68 °FClear.7 mph94%29.86 "Hg10 mi
11:20 PM70 °FClear.7 mph88%29.86 "Hg10 mi
10:50 PM70 °FClear.6 mph94%29.86 "Hg10 mi
10:20 PM72 °FPartly cloudy.6 mph88%29.86 "HgN/A
9:50 PM72 °FBroken clouds.6 mph88%29.86 "Hg6 mi
9:20 PM72 °FBroken clouds.5 mph88%29.86 "Hg4 mi
8:50 PM72 °FBroken clouds.3 mph88%29.86 "Hg5 mi
8:20 PM72 °FSunny.5 mph88%29.86 "Hg10 mi
7:50 PM72 °FSunny.6 mph83%29.86 "Hg10 mi
7:20 PM72 °FSunny.8 mph83%29.83 "Hg10 mi
6:50 PM72 °FMore clouds than sun.8 mph83%29.86 "HgN/A
6:20 PM73 °FSprinkles. Partly sunny.8 mph83%29.86 "HgN/A
Weather by CustomWeather, © 2014

See weather overviewHow to use our weather pages